Weather History for San Jose, Costa Rica

Change the Weather History Date:

Saturday, January 19, 2013

  Actual Average Record
Temperature  
Mean Temperature 73 °F -  
Max Temperature 80 °F 81 °F 84 °F (2001)
Min Temperature 66 °F 64 °F 59 °F (2001)
Cooling Degree Days 8    
Growing Degree Days 23 (Base 50)    
Moisture  
Dew Point 56 °F    
Average Humidity 57    
Maximum Humidity 73    
Minimum Humidity 36    
Precipitation  
Precipitation 0.00 in 0.01 in - ()
Sea Level Pressure  
Sea Level Pressure 29.97 in    
Wind  
Wind Speed 14 mph ()    
Max Wind Speed 23 mph    
Max Gust Speed 34 mph    
Visibility 8.1 miles    
Events      
Averages and records for this station are not official NWS values.
T = Trace of Precipitation, MM = Missing Value Source: Averaged Metar Reports

Daily Weather History Graph

Daily Weather History Graph

Search for Another Location

Airport:

Trip Planner

Search our weather history database for the weather conditions in past years. The results will help you decide how hot, cold, wet, or windy it might be!

Date:

Astronomy

Jan. 19, 2013 Rise Set
Actual Time 5:58 AM CST 5:36 PM CST
Civil Twilight 5:36 AM CST 5:58 PM CST
Nautical Twilight 5:10 AM CST 6:24 PM CST
Astronomical Twilight 4:45 AM CST 6:50 PM CST
Moon 11:50 AM CST (1/19) No Moon Set
Length of Visible Light 12h 22m
Length of Day
11h 37m
First Quarter, 57% of the Moon is Illuminated
Jan 19
First Quarter
Jan 26
Full
Feb 3
Last Quarter
Feb 10
New
Feb 17
First Quarter

Hourly Weather History & Observations

Time (CST) Temp. Dew Point Humidity Pressure Visibility Wind Dir Wind Speed Gust Speed Precip Events Conditions
12:00 AM 68 °F 56 °F 55% 29.83 in 12 mi ESE 13.8 mph - -  
12:00 AM 68.0 °F 55.4 °F 64% 30.00 in - ESE 13.8 mph 25.3 mph N/A   Clear
1:00 AM 68.0 °F 55.4 °F 64% 29.97 in - East 16.1 mph 28.8 mph N/A   Clear
2:00 AM 68.0 °F 55.4 °F 64% 29.95 in - ESE 19.6 mph - N/A   Clear
3:00 AM 67 °F 57 °F 63% 29.83 in 12 mi East 23.0 mph - -  
3:00 AM 68.0 °F 57.2 °F 68% 29.96 in - East 11.5 mph 23.0 mph N/A   Clear
4:00 AM 66.2 °F 57.2 °F 73% 29.97 in - East 13.8 mph 25.3 mph N/A   Clear
5:00 AM 68.0 °F 57.2 °F 68% 29.99 in - East 13.8 mph 25.3 mph N/A   Clear
6:00 AM 67 °F 56 °F 60% 29.87 in 12 mi ESE 13.8 mph - -   Scattered Clouds
6:00 AM 66.2 °F 57.2 °F 73% 30.00 in 6.2 mi ESE 13.8 mph 26.5 mph N/A   Partly Cloudy
7:00 AM 68.0 °F 55.4 °F 64% 30.02 in 6.2 mi East 16.1 mph 27.6 mph N/A   Partly Cloudy
8:00 AM 71.6 °F 57.2 °F 60% 30.05 in 6.2 mi ESE 18.4 mph 32.2 mph N/A   Partly Cloudy
9:00 AM 75 °F 57 °F 43% 29.89 in 12 mi East 16.1 mph - -   Scattered Clouds
9:00 AM 75.2 °F 57.2 °F 53% 30.06 in 6.2 mi East 16.1 mph 27.6 mph N/A   Partly Cloudy
10:00 AM 77.0 °F 55.4 °F 47% 30.06 in 6.2 mi East 17.3 mph 28.8 mph N/A   Scattered Clouds
11:00 AM 78.8 °F 57.2 °F 47% 30.04 in 6.2 mi East 17.3 mph 29.9 mph N/A   Partly Cloudy
12:00 PM 77 °F 55 °F 36% 29.87 in 12 mi East 18.4 mph - -   Scattered Clouds
12:00 PM 77.0 °F 55.4 °F 47% 30.02 in 6.2 mi East 18.4 mph 31.1 mph N/A   Partly Cloudy
1:00 PM 78.8 °F 55.4 °F 44% 29.99 in 6.2 mi East 18.4 mph 32.2 mph N/A   Partly Cloudy
2:00 PM 78.8 °F 55.4 °F 44% 29.95 in 6.2 mi East 16.1 mph 27.6 mph N/A   Partly Cloudy
3:00 PM 77.0 °F 55.4 °F 47% 29.94 in 6.2 mi ENE 17.3 mph 28.8 mph N/A   Partly Cloudy
4:00 PM 77.0 °F 53.6 °F 44% 29.94 in 6.2 mi East 18.4 mph 34.5 mph N/A   Partly Cloudy
5:00 PM 73.4 °F 57.2 °F 57% 29.96 in 6.2 mi East 16.1 mph 27.6 mph N/A   Partly Cloudy
6:00 PM 70 °F 58 °F 56% 29.84 in 12 mi East 13.8 mph - -   Scattered Clouds
6:00 PM 69.8 °F 57.2 °F 64% 29.97 in 6.2 mi East 13.8 mph 25.3 mph N/A   Partly Cloudy
7:00 PM 69.8 °F 57.2 °F 64% 30.00 in 6.2 mi East 13.8 mph 25.3 mph N/A   Partly Cloudy
8:00 PM 69.8 °F 57.2 °F 64% 30.02 in - ESE 11.5 mph 23.0 mph N/A   Clear
9:00 PM 69 °F 57 °F 57% 29.87 in 12 mi East 15.0 mph - -  
9:00 PM 69.8 °F 57.2 °F 64% 30.03 in - East 15.0 mph 26.5 mph N/A   Clear
10:00 PM 69.8 °F 57.2 °F 64% 30.03 in - East 12.7 mph 24.2 mph N/A   Clear
11:00 PM 69.8 °F 55.4 °F 60% 30.01 in - East 11.5 mph 23.0 mph N/A   Clear